Snow/Ice From: 17-01-2019 16:00 Until: 18-01-2019 16:00 warning for: Snow/Ice Level: Yellow info button

Although rather usual in this region, locally or potentially dangerous phenomena are expected. (such as local winds, summer thunderstorms, rising streams or high waves) Be aware and pay attention to the latest weather updates, especially if you carry out activities exposed to weather or close to a stream or shoreline. 

Meteo18 Weather Cam more information Meteo18 Weather Cam


Thunder radar more information blitzortung!


warning for Snow/Ice more information rain snow radar



Select another period ( hide this area )

Units Period Custom range Directly to
Metric English Both
Daily Weekly Monthly Yearly
use both date-selectors for a custom range
previous Day
With this date

WeatherUnderground graphs for this period ( click here )


Daily Summary for Thursday 17 January 2019
Time Temp. ( °C ) Dew pt. ( °C ) Wind ( km/h ) from Gust ( km/h ) Pressure ( hPa ) Humid.( % ) Rainrate ( cm )
High7,8 6,7 25,9 West ( 842/2150 ) 32,2 1014,8 96 1,80
Average6,4 4,1 9,9 West #83/217 16,5 1012,1 86 1,80
Low4,9 1,0 1,4   4,8 1009,7 67 -
Daily Tabular details for Thursday 17 January 2019
Time Temp. ( °C ) Dew pt. ( °C ) Wind ( km/h ) from Gust ( km/h ) Pressure ( hPa ) Humid.( % ) Rainrate ( cm )
00:03 6,5 4,7 9,7 SW 16,1 1011,1 88 -
00:09 6,6 4,9 13,0 SSW 17,7 1011,1 89 -
00:13 6,6 4,8 9,7 SSW 17,7 1011,1 88 -
00:19 6,7 4,9 9,7 SE 16,1 1010,7 88 -
00:23 6,7 4,9 7,9 SW 17,7 1010,7 88 -
00:27 6,7 5,0 11,1 SSW 16,1 1010,7 89 -
00:33 6,7 5,0 13,0 SSW 16,1 1010,7 89 -
00:37 6,6 5,1 14,3 SSW 19,3 1010,7 90 0,30
00:43 6,4 5,2 6,4 SSW 17,7 1010,7 92 0,50
00:47 6,3 5,1 9,7 SSW 14,5 1010,7 92 0,50
00:54 6,2 5,2 7,9 SSW 12,9 1010,7 93 0,80
00:58 6,1 5,1 3,2 SSE 9,7 1010,4 93 1,00
01:04 6,0 5,1 11,1 SW 12,9 1010,4 94 1,30
01:08 5,9 5,0 9,7 SSW 17,7 1010,4 94 1,50
01:14 5,9 5,2 4,7 SSW 14,5 1010,4 95 1,50
01:18 5,8 5,1 4,7 South 8,0 1010,4 95 1,50
01:24 5,8 5,1 4,7 South 11,3 1010,4 95 1,50
01:28 5,8 5,1 4,7 SSW 11,3 1010,4 95 1,50
01:34 5,8 5,1 6,4 SSW 8,0 1010,4 95 1,50
01:38 5,8 5,1 9,7 SSW 14,5 1010,0 95 1,30
01:44 5,9 5,2 17,7 SSW 17,7 1010,0 95 1,00
01:48 6,1 5,4 16,3 SSW 22,5 1010,0 95 0,80
01:54 6,2 5,3 17,7 SW 22,5 1010,0 94 0,50
01:58 6,2 5,3 16,3 SW 22,5 1010,0 94 0,50
02:04 6,3 5,4 17,7 SW 22,5 1010,0 94 0,50
02:08 6,3 5,6 16,3 SSW 20,9 1010,0 95 0,50
02:14 6,3 5,6 14,3 SW 22,5 1010,0 95 0,50
02:18 6,4 5,7 16,3 SSW 22,5 1010,0 95 0,50
02:24 6,4 5,7 19,5 SSW 20,9 1010,0 95 0,50
02:28 6,4 5,7 13,0 SSW 19,3 1010,0 95 0,50
02:34 6,4 5,7 13,0 SSW 17,7 1010,0 95 0,50
02:38 6,4 5,7 16,3 SW 17,7 1009,7 95 0,50
02:44 6,6 6,0 13,0 SW 12,9 1009,7 96 0,50
02:48 6,7 6,1 14,3 SW 16,1 1009,7 96 0,50
02:54 6,9 6,2 9,7 WSW 16,1 1010,0 95 0,50
02:58 7,0 6,3 6,4 WSW 19,3 1010,0 95 0,50
03:04 7,1 6,4 11,1 SSW 17,7 1009,7 95 0,50
03:08 7,1 6,4 16,3 SW 19,3 1009,7 95 0,50
03:14 7,1 6,4 7,9 WSW 14,5 1009,7 95 0,50
03:18 7,1 6,4 6,4 SW 17,7 1009,7 95 0,50
03:24 7,1 6,4 7,9 WSW 19,3 1009,7 95 0,50
03:28 7,1 6,4 7,9 SW 20,9 1009,7 95 0,80
03:34 7,2 6,5 16,3 South 20,9 1009,7 95 0,80
03:38 7,2 6,5 13,0 SSW 24,1 1009,7 95 1,00
03:44 7,1 6,4 11,1 SW 16,1 1009,7 95 1,30
03:48 7,1 6,4 11,1 WSW 16,1 1009,7 95 1,30
03:54 7,2 6,6 11,1 WSW 14,5 1009,7 96 1,50
03:58 7,2 6,6 9,7 WSW 12,9 1009,7 96 1,50
04:04 7,2 6,6 9,7 WSW 25,7 1009,7 96 1,80
04:08 7,3 6,7 14,3 West 17,7 1009,7 96 1,80
04:14 7,3 6,6 9,7 WSW 24,1 1010,0 95 1,80
04:18 7,4 6,7 11,1 West 22,5 1010,0 95 1,50
04:24 7,4 6,5 13,0 West 19,3 1010,0 94 1,80
04:28 7,3 6,2 7,9 West 14,5 1010,0 93 1,50
04:34 7,3 6,1 16,3 West 16,1 1010,0 92 1,50
04:38 7,3 6,2 6,4 WSW 17,7 1010,0 93 1,50
04:44 7,3 6,2 11,1 WSW 12,9 1010,0 93 1,30
04:48 7,3 6,2 9,7 West 16,1 1010,0 93 1,00
04:54 7,3 6,1 6,4 West 16,1 1010,0 92 0,80
04:58 7,2 5,8 13,0 West 27,4 1010,0 91 0,50
05:04 7,2 5,8 14,3 West 20,9 1010,0 91 0,50
05:08 7,2 5,8 17,7 WSW 17,7 1010,0 91 0,30
05:14 7,2 5,8 9,7 WNW 17,7 1010,0 91 0,30
05:18 7,1 5,7 9,7 West 16,1 1010,0 91 0,30
05:24 7,1 5,7 13,0 WSW 17,7 1010,4 91 -
05:28 7,1 5,7 9,7 SW 16,1 1010,4 91 -
05:34 6,9 5,5 6,4 West 14,5 1010,4 91 -
05:38 6,9 5,5 7,9 WNW 12,9 1010,4 91 -
05:44 6,9 5,4 7,9 West 16,1 1010,4 90 -
05:48 6,8 5,3 4,7 West 9,7 1010,4 90 -
05:54 6,8 5,3 6,4 NW 17,7 1010,4 90 -
05:58 6,7 5,2 7,9 West 14,5 1010,4 90 -
06:04 6,7 5,0 9,7 WNW 17,7 1010,4 89 -
06:08 6,6 4,9 4,7 West 8,0 1010,4 89 -
06:14 6,4 4,9 13,0 WNW 12,9 1010,7 90 -
06:18 6,4 4,9 1,4 WSW 11,3 1010,7 90 -
06:24 6,3 4,8 4,7 WSW 14,5 1010,7 90 -
06:28 6,3 4,8 11,1 WNW 19,3 1010,7 90 -
06:34 6,3 4,6 6,4 West 19,3 1010,7 89 -
06:38 6,2 4,5 4,7 West 8,0 1010,7 89 -
06:44 5,9 4,4 3,2 West 4,8 1010,7 90 -
06:48 5,9 4,4 6,4 WSW 6,4 1010,7 90 -
06:54 5,8 4,4 6,4 WSW 8,0 1010,7 91 -
06:58 5,8 4,4 4,7 SW 8,0 1010,7 91 -
07:04 5,7 4,3 9,7 WSW 11,3 1010,7 91 -
07:08 5,7 4,3 6,4 WSW 9,7 1010,7 91 -
07:14 5,6 4,4 4,7 West 6,4 1010,7 92 -
07:18 5,6 4,4 1,4 SW 9,7 1010,7 92 -
07:24 5,4 4,2 7,9 SW 11,3 1011,1 92 -
07:28 5,4 4,4 4,7 SW 9,7 1011,1 93 -
07:34 5,3 4,3 3,2 SW 11,3 1011,1 93 -
07:38 5,3 4,3 13,0 WSW 12,9 1011,1 93 -
07:44 5,3 4,3 13,0 SW 19,3 1011,1 93 -
07:48 5,3 4,3 13,0 SW 17,7 1011,1 93 -
07:54 5,4 4,4 11,1 West 11,3 1011,1 93 -
07:58 5,3 4,3 6,4 WSW 12,9 1011,4 93 -
08:04 5,2 4,2 6,4 SW 12,9 1011,4 93 -
08:08 5,2 4,2 6,4 SW 11,3 1011,4 93 -
08:14 5,1 4,1 9,7 WSW 12,9 1011,4 93 -
08:18 5,0 4,0 6,4 SW 12,9 1011,4 93 -
08:24 5,0 4,0 13,0 SW 12,9 1011,4 93 -
08:28 4,9 3,9 4,7 WSW 11,3 1011,7 93 -
08:34 4,9 3,9 7,9 WSW 16,1 1011,7 93 -
08:38 4,9 3,9 17,7 SW 17,7 1011,7 93 -
08:44 5,1 4,1 7,9 West 17,7 1011,7 93 -
08:48 5,1 3,9 9,7 WSW 12,9 1011,7 92 -
08:54 5,1 3,9 7,9 SW 19,3 1011,7 92 -
08:58 5,0 3,8 9,7 West 19,3 1011,7 92 -
09:04 5,0 3,8 6,4 WSW 17,7 1011,7 92 -
09:08 5,0 3,8 6,4 West 29,0 1012,1 92 -
09:14 5,0 3,8 13,0 West 19,3 1012,1 92 -
09:18 5,0 3,8 13,0 West 24,1 1012,1 92 -
09:24 5,0 3,8 9,7 SW 17,7 1012,4 92 -
09:28 5,0 3,8 14,3 WSW 19,3 1012,4 92 -
09:34 5,0 3,8 9,7 West 14,5 1012,4 92 -
09:38 5,1 3,9 9,7 SW 16,1 1012,4 92 -
09:44 5,1 3,9 9,7 WNW 17,7 1012,4 92 -
09:48 5,1 3,9 7,9 WSW 17,7 1012,4 92 -
09:52 5,1 3,9 13,0 WSW 17,7 1012,8 92 -
09:58 5,1 3,9 4,7 WNW 24,1 1012,8 92 -
10:02 5,1 3,9 9,7 SW 19,3 1012,8 92 -
10:09 5,2 4,0 11,1 West 16,1 1012,8 92 -
10:13 5,2 3,9 9,7 WSW 25,7 1012,8 91 -
10:19 5,3 4,0 7,9 West 17,7 1013,1 91 -
10:23 5,3 3,8 13,0 WNW 20,9 1013,1 90 -
10:29 5,4 3,9 13,0 West 25,7 1013,1 90 -
10:33 5,4 3,9 19,5 West 25,7 1013,1 90 -
10:39 5,4 3,9 13,0 West 19,3 1013,1 90 -
10:43 5,5 3,8 13,0 West 19,3 1013,1 89 -
10:49 5,5 3,8 13,0 West 12,9 1013,4 89 -
10:53 5,6 3,9 6,4 West 12,9 1013,4 89 -
10:59 5,6 3,9 7,9 West 14,5 1013,4 89 -
11:03 5,6 3,9 11,1 West 20,9 1013,4 89 -
11:09 5,7 3,9 11,1 West 20,9 1013,8 88 -
11:13 5,7 3,9 6,4 West 17,7 1013,8 88 -
11:19 5,9 3,9 13,0 West 19,3 1013,4 87 -
11:23 5,9 4,1 14,3 West 16,1 1013,4 88 -
11:29 6,1 4,1 9,7 WNW 14,5 1013,8 87 -
11:33 6,2 4,2 13,0 WSW 16,1 1013,8 87 -
11:39 6,2 3,9 6,4 West 32,2 1013,8 85 -
11:43 6,2 3,9 14,3 West 20,9 1013,8 85 -
11:49 6,1 3,8 7,9 West 17,7 1014,1 85 -
11:53 6,1 3,8 11,1 WNW 20,9 1013,8 85 -
11:59 6,1 3,9 7,9 WNW 19,3 1013,8 86 -
12:03 6,0 3,5 14,3 WSW 20,9 1013,8 84 -
12:09 6,0 3,5 6,4 West 27,4 1013,8 84 -
12:13 6,0 3,5 11,1 West 17,7 1013,8 84 -
12:19 6,0 3,5 9,7 WNW 17,7 1013,8 84 -
12:23 6,1 3,6 7,9 West 12,9 1013,8 84 -
12:29 6,2 3,5 16,3 WNW 20,9 1013,8 83 -
12:33 6,3 3,6 17,7 WNW 22,5 1013,8 83 -
12:39 6,3 3,5 19,5 West 22,5 1013,8 82 -
12:43 6,4 3,7 11,1 West 17,7 1013,8 83 -
12:49 6,4 3,6 14,3 West 17,7 1013,8 82 -
12:53 6,5 3,5 17,7 West 24,1 1013,8 81 -
12:59 6,7 3,7 19,5 West 19,3 1013,4 81 -
13:03 6,7 3,3 9,7 West 17,7 1013,8 79 -
13:09 6,9 3,5 11,1 West 19,3 1013,4 79 -
13:13 6,9 3,3 13,0 West 25,7 1013,4 78 -
13:19 6,9 3,5 13,0 WNW 20,9 1013,8 79 -
13:23 7,1 3,7 11,1 West 19,3 1013,4 79 -
13:29 7,3 3,9 13,0 West 19,3 1013,4 79 -
13:33 7,3 3,3 14,3 NW 22,5 1013,4 76 -
13:39 7,2 3,4 9,7 West 24,1 1013,4 77 -
13:43 7,2 3,1 17,7 West 19,3 1013,8 75 -
13:49 7,3 3,5 9,7 West 24,1 1013,4 77 -
13:53 7,4 3,4 9,7 West 14,5 1013,4 76 -
13:59 7,5 3,5 7,9 West 16,1 1013,8 76 -
14:03 7,6 3,5 13,0 West 14,5 1013,8 75 -
14:09 7,6 3,3 7,9 WSW 14,5 1013,4 74 -
14:13 7,8 3,5 7,9 West 20,9 1013,4 74 -
14:19 7,7 2,4 11,1 WNW 25,7 1013,4 69 -
14:23 7,6 1,9 17,7 WNW 24,1 1013,4 67 -
14:29 7,4 1,7 25,9 West 25,7 1013,8 67 -
14:33 7,3 2,0 13,0 WSW 20,9 1013,8 69 -
14:39 7,2 1,9 7,9 NW 17,7 1013,8 69 -
14:43 7,2 1,9 7,9 NW 22,5 1013,8 69 -
14:49 6,9 1,8 14,3 West 19,3 1013,8 70 -
14:53 6,8 1,9 11,1 NW 11,3 1013,8 71 -
14:59 6,8 2,1 3,2 WNW 9,7 1013,8 72 -
15:03 6,9 2,0 4,7 West 14,5 1013,8 71 -
15:09 7,3 2,6 4,7 WNW 11,3 1013,8 72 -
15:13 7,3 2,4 4,7 NW 8,0 1014,1 71 -
15:19 7,3 2,4 1,4 WNW 14,5 1014,1 71 -
15:23 7,3 2,8 6,4 WNW 8,0 1014,1 73 -
15:29 7,2 1,9 9,7 West 17,7 1014,1 69 -
15:33 7,1 2,0 9,7 SW 19,3 1014,1 70 -
15:39 7,0 1,9 9,7 NW 19,3 1014,1 70 -
15:43 7,1 2,0 9,7 WSW 12,9 1014,1 70 -
15:49 7,1 1,8 9,7 WNW 12,9 1014,1 69 -
15:53 7,0 1,7 9,7 West 11,3 1014,1 69 -
15:59 7,1 1,8 9,7 WNW 14,5 1014,1 69 -
16:03 7,2 1,9 9,7 WNW 12,9 1014,4 69 -
16:09 7,3 1,8 9,7 WNW 16,1 1014,4 68 -
16:13 7,4 1,9 13,0 West 17,7 1014,4 68 -
16:19 7,6 2,1 4,7 West 11,3 1014,4 68 -
16:23 7,7 2,0 4,7 West 14,5 1014,4 67 -
16:29 7,6 1,9 7,9 West 14,5 1014,4 67 -
16:33 7,5 1,8 9,7 WSW 16,1 1014,4 67 -
16:39 7,4 1,9 11,1 West 12,9 1014,4 68 -
16:43 7,3 1,8 6,4 West 16,1 1014,4 68 -
16:49 7,1 2,0 7,9 West 11,3 1014,4 70 -
16:53 6,9 1,6 7,9 West 14,5 1014,4 69 -
16:59 6,7 1,8 7,9 WSW 11,3 1014,4 71 -
17:03 6,6 1,7 6,4 West 11,3 1014,4 71 -
17:09 6,6 1,7 9,7 West 17,7 1014,4 71 -
17:13 6,6 1,7 9,7 West 14,5 1014,4 71 -
17:19 6,4 1,7 9,7 West 11,3 1014,8 72 -
17:23 6,3 1,4 6,4 West 8,0 1014,8 71 -
17:29 6,2 1,5 6,4 WSW 9,7 1014,8 72 -
17:33 6,1 1,4 4,7 WSW 11,3 1014,8 72 -
17:39 5,9 1,2 3,2 WSW 11,3 1014,8 72 -
17:43 5,8 1,1 3,2 West 6,4 1014,8 72 -
17:49 5,6 1,1 4,7 WSW 8,0 1014,8 73 -
17:53 5,5 1,0 4,7 WSW 8,0 1014,8 73 -
17:59 5,4 1,1 1,4 WSW 4,8 1014,8 74 -
18:03 5,3 1,0 1,4 West 4,8 1014,8 74 -
Daily Summary for Thursday 17 January 2019
Time Temp. ( °C ) Dew pt. ( °C ) Wind ( km/h ) from Gust ( km/h ) Pressure ( hPa ) Humid.( % ) Rainrate ( cm )
High7,8 6,7 25,9 West ( 842/2150 ) 32,2 1014,8 96 1,80
Average6,4 4,1 9,9 West #83/217 16,5 1012,1 86 1,80
Low4,9 1,0 1,4   4,8 1009,7 67 -
Daily Tabular details for Thursday 17 January 2019
Time Temp. ( °C ) Dew pt. ( °C ) Wind ( km/h ) from Gust ( km/h ) Pressure ( hPa ) Humid.( % ) Rainrate ( cm )
00:03 6,5 4,7 9,7 SW 16,1 1011,1 88 -
00:09 6,6 4,9 13,0 SSW 17,7 1011,1 89 -
00:13 6,6 4,8 9,7 SSW 17,7 1011,1 88 -
00:19 6,7 4,9 9,7 SE 16,1 1010,7 88 -
00:23 6,7 4,9 7,9 SW 17,7 1010,7 88 -
00:27 6,7 5,0 11,1 SSW 16,1 1010,7 89 -
00:33 6,7 5,0 13,0 SSW 16,1 1010,7 89 -
00:37 6,6 5,1 14,3 SSW 19,3 1010,7 90 0,30
00:43 6,4 5,2 6,4 SSW 17,7 1010,7 92 0,50
00:47 6,3 5,1 9,7 SSW 14,5 1010,7 92 0,50
00:54 6,2 5,2 7,9 SSW 12,9 1010,7 93 0,80
00:58 6,1 5,1 3,2 SSE 9,7 1010,4 93 1,00
01:04 6,0 5,1 11,1 SW 12,9 1010,4 94 1,30
01:08 5,9 5,0 9,7 SSW 17,7 1010,4 94 1,50
01:14 5,9 5,2 4,7 SSW 14,5 1010,4 95 1,50
01:18 5,8 5,1 4,7 South 8,0 1010,4 95 1,50
01:24 5,8 5,1 4,7 South 11,3 1010,4 95 1,50
01:28 5,8 5,1 4,7 SSW 11,3 1010,4 95 1,50
01:34 5,8 5,1 6,4 SSW 8,0 1010,4 95 1,50
01:38 5,8 5,1 9,7 SSW 14,5 1010,0 95 1,30
01:44 5,9 5,2 17,7 SSW 17,7 1010,0 95 1,00
01:48 6,1 5,4 16,3 SSW 22,5 1010,0 95 0,80
01:54 6,2 5,3 17,7 SW 22,5 1010,0 94 0,50
01:58 6,2 5,3 16,3 SW 22,5 1010,0 94 0,50
02:04 6,3 5,4 17,7 SW 22,5 1010,0 94 0,50
02:08 6,3 5,6 16,3 SSW 20,9 1010,0 95 0,50
02:14 6,3 5,6 14,3 SW 22,5 1010,0 95 0,50
02:18 6,4 5,7 16,3 SSW 22,5 1010,0 95 0,50
02:24 6,4 5,7 19,5 SSW 20,9 1010,0 95 0,50
02:28 6,4 5,7 13,0 SSW 19,3 1010,0 95 0,50
02:34 6,4 5,7 13,0 SSW 17,7 1010,0 95 0,50
02:38 6,4 5,7 16,3 SW 17,7 1009,7 95 0,50
02:44 6,6 6,0 13,0 SW 12,9 1009,7 96 0,50
02:48 6,7 6,1 14,3 SW 16,1 1009,7 96 0,50
02:54 6,9 6,2 9,7 WSW 16,1 1010,0 95 0,50
02:58 7,0 6,3 6,4 WSW 19,3 1010,0 95 0,50
03:04 7,1 6,4 11,1 SSW 17,7 1009,7 95 0,50
03:08 7,1 6,4 16,3 SW 19,3 1009,7 95 0,50
03:14 7,1 6,4 7,9 WSW 14,5 1009,7 95 0,50
03:18 7,1 6,4 6,4 SW 17,7 1009,7 95 0,50
03:24 7,1 6,4 7,9 WSW 19,3 1009,7 95 0,50
03:28 7,1 6,4 7,9 SW 20,9 1009,7 95 0,80
03:34 7,2 6,5 16,3 South 20,9 1009,7 95 0,80
03:38 7,2 6,5 13,0 SSW 24,1 1009,7 95 1,00
03:44 7,1 6,4 11,1 SW 16,1 1009,7 95 1,30
03:48 7,1 6,4 11,1 WSW 16,1 1009,7 95 1,30
03:54 7,2 6,6 11,1 WSW 14,5 1009,7 96 1,50
03:58 7,2 6,6 9,7 WSW 12,9 1009,7 96 1,50
04:04 7,2 6,6 9,7 WSW 25,7 1009,7 96 1,80
04:08 7,3 6,7 14,3 West 17,7 1009,7 96 1,80
04:14 7,3 6,6 9,7 WSW 24,1 1010,0 95 1,80
04:18 7,4 6,7 11,1 West 22,5 1010,0 95 1,50
04:24 7,4 6,5 13,0 West 19,3 1010,0 94 1,80
04:28 7,3 6,2 7,9 West 14,5 1010,0 93 1,50
04:34 7,3 6,1 16,3 West 16,1 1010,0 92 1,50
04:38 7,3 6,2 6,4 WSW 17,7 1010,0 93 1,50
04:44 7,3 6,2 11,1 WSW 12,9 1010,0 93 1,30
04:48 7,3 6,2 9,7 West 16,1 1010,0 93 1,00
04:54 7,3 6,1 6,4 West 16,1 1010,0 92 0,80
04:58 7,2 5,8 13,0 West 27,4 1010,0 91 0,50
05:04 7,2 5,8 14,3 West 20,9 1010,0 91 0,50
05:08 7,2 5,8 17,7 WSW 17,7 1010,0 91 0,30
05:14 7,2 5,8 9,7 WNW 17,7 1010,0 91 0,30
05:18 7,1 5,7 9,7 West 16,1 1010,0 91 0,30
05:24 7,1 5,7 13,0 WSW 17,7 1010,4 91 -
05:28 7,1 5,7 9,7 SW 16,1 1010,4 91 -
05:34 6,9 5,5 6,4 West 14,5 1010,4 91 -
05:38 6,9 5,5 7,9 WNW 12,9 1010,4 91 -
05:44 6,9 5,4 7,9 West 16,1 1010,4 90 -
05:48 6,8 5,3 4,7 West 9,7 1010,4 90 -
05:54 6,8 5,3 6,4 NW 17,7 1010,4 90 -
05:58 6,7 5,2 7,9 West 14,5 1010,4 90 -
06:04 6,7 5,0 9,7 WNW 17,7 1010,4 89 -
06:08 6,6 4,9 4,7 West 8,0 1010,4 89 -
06:14 6,4 4,9 13,0 WNW 12,9 1010,7 90 -
06:18 6,4 4,9 1,4 WSW 11,3 1010,7 90 -
06:24 6,3 4,8 4,7 WSW 14,5 1010,7 90 -
06:28 6,3 4,8 11,1 WNW 19,3 1010,7 90 -
06:34 6,3 4,6 6,4 West 19,3 1010,7 89 -
06:38 6,2 4,5 4,7 West 8,0 1010,7 89 -
06:44 5,9 4,4 3,2 West 4,8 1010,7 90 -
06:48 5,9 4,4 6,4 WSW 6,4 1010,7 90 -
06:54 5,8 4,4 6,4 WSW 8,0 1010,7 91 -
06:58 5,8 4,4 4,7 SW 8,0 1010,7 91 -
07:04 5,7 4,3 9,7 WSW 11,3 1010,7 91 -
07:08 5,7 4,3 6,4 WSW 9,7 1010,7 91 -
07:14 5,6 4,4 4,7 West 6,4 1010,7 92 -
07:18 5,6 4,4 1,4 SW 9,7 1010,7 92 -
07:24 5,4 4,2 7,9 SW 11,3 1011,1 92 -
07:28 5,4 4,4 4,7 SW 9,7 1011,1 93 -
07:34 5,3 4,3 3,2 SW 11,3 1011,1 93 -
07:38 5,3 4,3 13,0 WSW 12,9 1011,1 93 -
07:44 5,3 4,3 13,0 SW 19,3 1011,1 93 -
07:48 5,3 4,3 13,0 SW 17,7 1011,1 93 -
07:54 5,4 4,4 11,1 West 11,3 1011,1 93 -
07:58 5,3 4,3 6,4 WSW 12,9 1011,4 93 -
08:04 5,2 4,2 6,4 SW 12,9 1011,4 93 -
08:08 5,2 4,2 6,4 SW 11,3 1011,4 93 -
08:14 5,1 4,1 9,7 WSW 12,9 1011,4 93 -
08:18 5,0 4,0 6,4 SW 12,9 1011,4 93 -
08:24 5,0 4,0 13,0 SW 12,9 1011,4 93 -
08:28 4,9 3,9 4,7 WSW 11,3 1011,7 93 -
08:34 4,9 3,9 7,9 WSW 16,1 1011,7 93 -
08:38 4,9 3,9 17,7 SW 17,7 1011,7 93 -
08:44 5,1 4,1 7,9 West 17,7 1011,7 93 -
08:48 5,1 3,9 9,7 WSW 12,9 1011,7 92 -
08:54 5,1 3,9 7,9 SW 19,3 1011,7 92 -
08:58 5,0 3,8 9,7 West 19,3 1011,7 92 -
09:04 5,0 3,8 6,4 WSW 17,7 1011,7 92 -
09:08 5,0 3,8 6,4 West 29,0 1012,1 92 -
09:14 5,0 3,8 13,0 West 19,3 1012,1 92 -
09:18 5,0 3,8 13,0 West 24,1 1012,1 92 -
09:24 5,0 3,8 9,7 SW 17,7 1012,4 92 -
09:28 5,0 3,8 14,3 WSW 19,3 1012,4 92 -
09:34 5,0 3,8 9,7 West 14,5 1012,4 92 -
09:38 5,1 3,9 9,7 SW 16,1 1012,4 92 -
09:44 5,1 3,9 9,7 WNW 17,7 1012,4 92 -
09:48 5,1 3,9 7,9 WSW 17,7 1012,4 92 -
09:52 5,1 3,9 13,0 WSW 17,7 1012,8 92 -
09:58 5,1 3,9 4,7 WNW 24,1 1012,8 92 -
10:02 5,1 3,9 9,7 SW 19,3 1012,8 92 -
10:09 5,2 4,0 11,1 West 16,1 1012,8 92 -
10:13 5,2 3,9 9,7 WSW 25,7 1012,8 91 -
10:19 5,3 4,0 7,9 West 17,7 1013,1 91 -
10:23 5,3 3,8 13,0 WNW 20,9 1013,1 90 -
10:29 5,4 3,9 13,0 West 25,7 1013,1 90 -
10:33 5,4 3,9 19,5 West 25,7 1013,1 90 -
10:39 5,4 3,9 13,0 West 19,3 1013,1 90 -
10:43 5,5 3,8 13,0 West 19,3 1013,1 89 -
10:49 5,5 3,8 13,0 West 12,9 1013,4 89 -
10:53 5,6 3,9 6,4 West 12,9 1013,4 89 -
10:59 5,6 3,9 7,9 West 14,5 1013,4 89 -
11:03 5,6 3,9 11,1 West 20,9 1013,4 89 -
11:09 5,7 3,9 11,1 West 20,9 1013,8 88 -
11:13 5,7 3,9 6,4 West 17,7 1013,8 88 -
11:19 5,9 3,9 13,0 West 19,3 1013,4 87 -
11:23 5,9 4,1 14,3 West 16,1 1013,4 88 -
11:29 6,1 4,1 9,7 WNW 14,5 1013,8 87 -
11:33 6,2 4,2 13,0 WSW 16,1 1013,8 87 -
11:39 6,2 3,9 6,4 West 32,2 1013,8 85 -
11:43 6,2 3,9 14,3 West 20,9 1013,8 85 -
11:49 6,1 3,8 7,9 West 17,7 1014,1 85 -
11:53 6,1 3,8 11,1 WNW 20,9 1013,8 85 -
11:59 6,1 3,9 7,9 WNW 19,3 1013,8 86 -
12:03 6,0 3,5 14,3 WSW 20,9 1013,8 84 -
12:09 6,0 3,5 6,4 West 27,4 1013,8 84 -
12:13 6,0 3,5 11,1 West 17,7 1013,8 84 -
12:19 6,0 3,5 9,7 WNW 17,7 1013,8 84 -
12:23 6,1 3,6 7,9 West 12,9 1013,8 84 -
12:29 6,2 3,5 16,3 WNW 20,9 1013,8 83 -
12:33 6,3 3,6 17,7 WNW 22,5 1013,8 83 -
12:39 6,3 3,5 19,5 West 22,5 1013,8 82 -
12:43 6,4 3,7 11,1 West 17,7 1013,8 83 -
12:49 6,4 3,6 14,3 West 17,7 1013,8 82 -
12:53 6,5 3,5 17,7 West 24,1 1013,8 81 -
12:59 6,7 3,7 19,5 West 19,3 1013,4 81 -
13:03 6,7 3,3 9,7 West 17,7 1013,8 79 -
13:09 6,9 3,5 11,1 West 19,3 1013,4 79 -
13:13 6,9 3,3 13,0 West 25,7 1013,4 78 -
13:19 6,9 3,5 13,0 WNW 20,9 1013,8 79 -
13:23 7,1 3,7 11,1 West 19,3 1013,4 79 -
13:29 7,3 3,9 13,0 West 19,3 1013,4 79 -
13:33 7,3 3,3 14,3 NW 22,5 1013,4 76 -
13:39 7,2 3,4 9,7 West 24,1 1013,4 77 -
13:43 7,2 3,1 17,7 West 19,3 1013,8 75 -
13:49 7,3 3,5 9,7 West 24,1 1013,4 77 -
13:53 7,4 3,4 9,7 West 14,5 1013,4 76 -
13:59 7,5 3,5 7,9 West 16,1 1013,8 76 -
14:03 7,6 3,5 13,0 West 14,5 1013,8 75 -
14:09 7,6 3,3 7,9 WSW 14,5 1013,4 74 -
14:13 7,8 3,5 7,9 West 20,9 1013,4 74 -
14:19 7,7 2,4 11,1 WNW 25,7 1013,4 69 -
14:23 7,6 1,9 17,7 WNW 24,1 1013,4 67 -
14:29 7,4 1,7 25,9 West 25,7 1013,8 67 -
14:33 7,3 2,0 13,0 WSW 20,9 1013,8 69 -
14:39 7,2 1,9 7,9 NW 17,7 1013,8 69 -
14:43 7,2 1,9 7,9 NW 22,5 1013,8 69 -
14:49 6,9 1,8 14,3 West 19,3 1013,8 70 -
14:53 6,8 1,9 11,1 NW 11,3 1013,8 71 -
14:59 6,8 2,1 3,2 WNW 9,7 1013,8 72 -
15:03 6,9 2,0 4,7 West 14,5 1013,8 71 -
15:09 7,3 2,6 4,7 WNW 11,3 1013,8 72 -
15:13 7,3 2,4 4,7 NW 8,0 1014,1 71 -
15:19 7,3 2,4 1,4 WNW 14,5 1014,1 71 -
15:23 7,3 2,8 6,4 WNW 8,0 1014,1 73 -
15:29 7,2 1,9 9,7 West 17,7 1014,1 69 -
15:33 7,1 2,0 9,7 SW 19,3 1014,1 70 -
15:39 7,0 1,9 9,7 NW 19,3 1014,1 70 -
15:43 7,1 2,0 9,7 WSW 12,9 1014,1 70 -
15:49 7,1 1,8 9,7 WNW 12,9 1014,1 69 -
15:53 7,0 1,7 9,7 West 11,3 1014,1 69 -
15:59 7,1 1,8 9,7 WNW 14,5 1014,1 69 -
16:03 7,2 1,9 9,7 WNW 12,9 1014,4 69 -
16:09 7,3 1,8 9,7 WNW 16,1 1014,4 68 -
16:13 7,4 1,9 13,0 West 17,7 1014,4 68 -
16:19 7,6 2,1 4,7 West 11,3 1014,4 68 -
16:23 7,7 2,0 4,7 West 14,5 1014,4 67 -
16:29 7,6 1,9 7,9 West 14,5 1014,4 67 -
16:33 7,5 1,8 9,7 WSW 16,1 1014,4 67 -
16:39 7,4 1,9 11,1 West 12,9 1014,4 68 -
16:43 7,3 1,8 6,4 West 16,1 1014,4 68 -
16:49 7,1 2,0 7,9 West 11,3 1014,4 70 -
16:53 6,9 1,6 7,9 West 14,5 1014,4 69 -
16:59 6,7 1,8 7,9 WSW 11,3 1014,4 71 -
17:03 6,6 1,7 6,4 West 11,3 1014,4 71 -
17:09 6,6 1,7 9,7 West 17,7 1014,4 71 -
17:13 6,6 1,7 9,7 West 14,5 1014,4 71 -
17:19 6,4 1,7 9,7 West 11,3 1014,8 72 -
17:23 6,3 1,4 6,4 West 8,0 1014,8 71 -
17:29 6,2 1,5 6,4 WSW 9,7 1014,8 72 -
17:33 6,1 1,4 4,7 WSW 11,3 1014,8 72 -
17:39 5,9 1,2 3,2 WSW 11,3 1014,8 72 -
17:43 5,8 1,1 3,2 West 6,4 1014,8 72 -
17:49 5,6 1,1 4,7 WSW 8,0 1014,8 73 -
17:53 5,5 1,0 4,7 WSW 8,0 1014,8 73 -
17:59 5,4 1,1 1,4 WSW 4,8 1014,8 74 -
18:03 5,3 1,0 1,4 West 4,8 1014,8 74 -

Download your copy of this data-set  here

Our weather-data as stored at Weather Underground. Script developed by Jim McMurry. Adapted for the template by Leuven-Template.eu

You find our weather info also at:

Weather Underground

Equipment we use:

Weather-station
Davis Vue

Weather-program
Meteobridge

Weather-server
Raspberry PI 2 B+

Provider
1 and 1

Davis Vue

Meteobridge

Raspberry PI 2 B+

1 and 1